Location: Albany
(35.0000°S, 118.0000°E)
Time: 19:25:56
(UTC-04:00)

SJ-6B - Visible Passes

Search period start: 22 May 2017 00:00
Search period end: 01 June 2017 00:00
Orbit: 512 x 583 km, 97.7° (Epoch: 21 May)

Date Brightness Start Highest point End Pass type
(mag) Time Alt. Az. Time Alt. Az. Time Alt. Az.
24 May 4.7 18:32:48 10° NE 18:36:05 29° ESE 18:39:26 10° S visible
25 May 5.0 18:28:01 10° NE 18:31:10 25° ESE 18:34:22 10° SSE visible
26 May 5.2 18:23:16 10° ENE 18:26:14 22° ESE 18:29:15 10° SSE visible
27 May 5.4 18:18:34 10° ENE 18:21:19 19° ESE 18:24:07 10° SSE visible
28 May 5.5 18:13:54 10° ENE 18:16:24 17° ESE 18:18:57 10° SSE visible
29 May 5.6 18:09:18 10° ENE 18:11:30 15° ESE 18:13:43 10° SSE visible
30 May 5.7 18:04:47 10° E 18:06:36 13° ESE 18:08:25 10° SE visible
31 May 5.8 18:00:26 10° E 18:01:42 11° ESE 18:02:57 10° SE visible
